Location: Caltech
(34.1382°N, 118.1253°W)
Time: 23:05:02
(UTC-08:00)

ERBS - Visible Passes

Search period start: 30 January 2015 00:00
Search period end: 09 February 2015 00:00
Orbit: 460 x 474 km, 57.0° (Epoch: 28 January)

Date Brightness Start Highest point End Pass type
(mag) Time Alt. Az. Time Alt. Az. Time Alt. Az.
30 Jan 4.2 18:49:39 10° WNW 18:52:59 32° SW 18:56:15 10° S visible
31 Jan 3.7 18:17:40 10° NW 18:21:11 45° SW 18:24:41 10° SSE visible
01 Feb 3.1 17:45:45 10° NW 17:49:23 63° SW 17:52:58 10° SSE visible
04 Feb 6.3 17:49:35 10° W 17:50:48 11° WSW 17:51:48 10° SW visible
08 Feb 5.5 05:49:26 10° SSE 05:52:02 19° ESE 05:54:44 10° ENE visible
